This is the latest recevied weather packets stored in our database for station/object IU2EVW-3. If no packets are shown the sender has not sent any weather packets the latest 10 day(s).
| Time | Temp. | Humidity | Pressure | Rain* | Wind** | Luminosity | Snow |
|---|---|---|---|---|---|---|---|
| 1777946540 | 15° C | 57% | 1014 hPa | - | - | - | - |
| 1777945339 | 14.44° C | 58% | 1014.1 hPa | - | - | - | - |
| 1777944138 | 14.44° C | 59% | 1014.5 hPa | - | - | - | - |
| 1777942937 | 15° C | 59% | 1014.9 hPa | - | - | - | - |
| 1777941736 | 15° C | 57% | 1015 hPa | - | - | - | - |
| 1777940535 | 15° C | 57% | 1015.4 hPa | - | - | - | - |
| 1777939333 | 15° C | 55% | 1015.6 hPa | - | - | - | - |
| 1777938132 | 15.56° C | 55% | 1015.9 hPa | - | - | - | - |
| 1777936931 | 15.56° C | 55% | 1016.1 hPa | - | - | - | - |
| 1777935730 | 15.56° C | 55% | 1016.3 hPa | - | - | - | - |
| 1777934529 | 15.56° C | 55% | 1016.3 hPa | - | - | - | - |
| 1777933327 | 16.11° C | 51% | 1016.5 hPa | - | - | - | - |
| 1777932126 | 16.11° C | 48% | 1016.5 hPa | - | - | - | - |
| 1777930925 | 16.67° C | 46% | 1016.6 hPa | - | - | - | - |
| 1777929723 | 16.67° C | 43% | 1016.8 hPa | - | - | - | - |
| 1777928522 | 16.67° C | 40% | 1017 hPa | - | - | - | - |
| 1777927321 | 17.22° C | 36% | 1016.9 hPa | - | - | - | - |
| 1777926120 | 17.22° C | 36% | 1016.9 hPa | - | - | - | - |
| 1777924919 | 17.78° C | 36% | 1016.8 hPa | - | - | - | - |
| 1777923717 | 17.78° C | 37% | 1016.7 hPa | - | - | - | - |
| 1777922516 | 18.33° C | 37% | 1016.6 hPa | - | - | - | - |
| 1777921315 | 18.89° C | 38% | 1016.4 hPa | - | - | - | - |
| 1777920114 | 18.89° C | 39% | 1016.1 hPa | - | - | - | - |
| 1777918913 | 19.44° C | 39% | 1015.9 hPa | - | - | - | - |
| 1777917712 | 20° C | 39% | 1015.9 hPa | - | - | - | - |
* Rain since midnight (hover to see other rain measurements)
** Current wind speed in m/s (hover to see current wind gust speed)